EW6193 Weather Reports


time (UTC)temp
C
wind
direction
speed
KPH
gust
KPH
rain 1hr
cm
rain 24hr
cm
rain mn
cm
humidity
%
barometer
mb
20260902153052 12 271 8.0 16.1 0.00 0.00 0.00 69 1009.9
20260902151539 11 278 4.8 8.0 0.00 0.00 0.00 73 1010.2
20260902150037 11 285 0.0 1.6 0.00 0.00 0.00 72 1010.2
20260902144537 11 269 3.2 9.7 0.00 0.00 0.00 71 1010.2
20260902143032 12 299 3.2 11.3 0.00 0.00 0.00 71 1010.2
20260902141527 12 275 6.4 12.9 0.00 0.00 0.00 71 1010.2
20260902140025 11 263 8.0 14.5 0.00 0.00 0.00 72 1010.4
20260902134523 11 265 6.4 12.9 0.00 0.00 0.00 72 1010.4
20260902133020 11 276 8.0 16.1 0.00 0.00 0.00 72 1010.5
20260902131516 11 262 8.0 12.9 0.00 0.00 0.00 72 1010.3
20260902130013 11 264 8.0 14.5 0.00 0.00 0.00 73 1010.4
20260902124510 11 252 4.8 8.0 0.00 0.00 0.00 74 1010.6
20260902123008 11 283 4.8 9.7 0.00 0.00 0.00 73 1010.5
20260902121504 11 267 4.8 9.7 0.00 0.00 0.00 72 1010.6
20260902114559 11 273 1.6 4.8 0.00 0.00 0.00 73 1010.7
20260902113059 10 300 3.2 4.8 0.00 0.00 0.00 75 1010.7
20260902111602 11 264 3.2 8.0 0.00 0.00 0.00 73 1010.6
20260902110104 11 270 3.2 6.4 0.00 0.00 0.00 74 1010.9
20260902104614 11 314 1.6 9.7 0.00 0.00 0.00 75 1011.0
20260902103110 11 268 1.6 4.8 0.00 0.00 0.00 77 1011.3
20260902101605 11 281 0.0 1.6 0.00 0.00 0.00 78 1011.6
20260902100054 11 179 0.0 3.2 0.00 0.00 0.00 78 1011.2
20260902094552 11 271 4.8 9.7 0.00 0.00 0.00 79 1011.0
20260902093051 10 277 3.2 8.0 0.00 0.00 0.00 80 1011.0
20260902091550 10 287 1.6 3.2 0.00 0.00 0.00 79 1011.0
20260902090051 11 283 0.0 3.2 0.00 0.00 0.00 78 1010.8
20260902084555 11 259 3.2 8.0 0.00 0.00 0.00 78 1010.5
20260902083053 10 278 0.0 3.2 0.00 0.00 0.00 79 1010.6
20260902081547 10 274 0.0 0.0 0.00 0.00 0.00 76 1010.7
20260902080046 11 274 0.0 1.6 0.00 0.00 0.00 74 1010.5
20260902074544 11 291 0.0 1.6 0.00 0.00 0.00 73 1010.3
20260902073042 11 272 0.0 3.2 0.00 0.00 0.00 71 1010.3
20260902071541 12 290 1.6 4.8 0.00 0.00 0.00 69 1010.3
20260902070039 12 280 3.2 6.4 0.00 0.00 0.00 67 1010.3
20260902064539 13 269 1.6 4.8 0.00 0.00 0.00 64 1010.6
20260902063052 13 271 1.6 6.4 0.00 0.00 0.00 65 1010.6
20260902061558 13 254 4.8 9.7 0.00 0.00 0.00 63 1010.2
20260902060041 14 281 6.4 12.9 0.00 0.00 0.00 61 1010.0
20260902054536 15 257 8.0 14.5 0.00 0.00 0.00 59 1009.7
20260902053039 15 252 8.0 12.9 0.00 0.00 0.00 54 1009.7
20260902051552 16 264 4.8 11.3 0.00 0.00 0.00 51 1009.2
20260902050036 17 310 4.8 14.5 0.00 0.00 0.00 50 1009.0
20260902044559 17 269 11.3 17.7 0.00 0.00 0.00 51 1009.1
20260902043034 17 267 9.7 16.1 0.00 0.00 0.00 48 1009.0
20260902041534 17 274 4.8 12.9 0.00 0.00 0.00 48 1008.9
20260902040029 17 306 6.4 16.1 0.00 0.00 0.00 47 1009.0
20260902034528 17 267 4.8 12.9 0.00 0.00 0.00 49 1009.1
20260902033024 16 289 4.8 12.9 0.00 0.00 0.00 52 1009.2
20260902031538 15 285 8.0 12.9 0.00 0.00 0.00 51 1009.2
20260902030019 15 274 6.4 12.9 0.00 0.00 0.00 51 1009.1
20260902024518 15 283 6.4 12.9 0.00 0.00 0.00 52 1008.8
20260902023022 15 276 11.3 19.3 0.00 0.00 0.00 50 1008.8
20260902021514 15 285 12.9 19.3 0.00 0.00 0.00 50 1008.8
20260902020014 15 245 12.9 22.5 0.00 0.00 0.00 51 1008.8
20260902014515 15 264 9.7 19.3 0.00 0.00 0.00 52 1008.8
20260902013010 15 303 12.9 22.5 0.00 0.00 0.00 51 1008.9
20260902011516 15 254 8.0 16.1 0.00 0.00 0.00 53 1009.2
20260902010006 15 278 11.3 22.5 0.00 0.00 0.00 53 1009.4
20260902004506 15 275 14.5 25.7 0.00 0.00 0.00 52 1009.8
20260902003004 15 273 12.9 20.9 0.00 0.00 0.00 52 1009.9
20260902001506 15 248 9.7 22.5 0.00 0.00 0.00 54 1009.9
20260902000007 15 265 11.3 24.1 0.00 0.00 0.00 54 1010.0
20260901234502 15 286 12.9 24.1 0.00 0.00 0.00 54 1009.9
20260901233001 15 274 14.5 22.5 0.00 0.00 0.00 54 1009.8
20260901231614 15 274 11.3 25.7 0.00 0.00 0.00 53 1010.1
20260901230109 14 293 14.5 30.6 0.00 0.00 0.00 53 1010.1
20260901224559 14 258 12.9 24.1 0.00 0.00 0.00 54 1010.3
20260901223059 13 265 8.0 19.3 0.00 0.00 0.00 54 1010.2
20260901221610 13 349 12.9 27.4 0.00 0.00 0.00 53 1010.3
20260901220058 14 283 14.5 30.6 0.00 0.00 0.00 52 1010.4
20260901214556 14 254 14.5 27.4 0.00 0.00 0.00 51 1010.3
20260901213056 15 258 12.9 24.1 0.00 0.00 0.00 50 1010.6
20260901211552 15 285 8.0 17.7 0.00 0.00 0.00 51 1010.6
20260901210050 14 266 6.4 19.3 0.00 0.00 0.00 52 1010.8
20260901204546 13 275 3.2 11.3 0.00 0.00 0.00 55 1010.9
20260901203047 13 277 1.6 9.7 0.00 0.00 0.00 56 1010.8
20260901201545 12 298 8.0 14.5 0.00 0.00 0.00 59 1010.8
20260901200036 12 267 9.7 16.1 0.00 0.00 0.00 60 1010.3
20260901194535 12 249 12.9 20.9 0.00 0.00 0.00 59 1010.2
20260901193033 11 293 9.7 16.1 0.00 0.00 0.00 61 1010.4
20260901191541 10 289 9.7 19.3 0.00 0.00 0.00 62 1010.2
20260901190030 -17 0.0 0.0 0.00 0.00 0.00 1010.1
20260901184526 -17 0.0 0.0 0.00 0.00 0.00 1010.0
20260901183034 -17 0.0 0.0 0.00 0.00 0.00 1010.3
20260901181518 -17 0.0 0.0 0.00 0.00 0.00 1010.1
20260901180018 -17 0.0 0.0 0.00 0.00 0.00 1009.9
20260901174509 -17 0.0 0.0 0.00 0.00 0.00 1009.9
20260901173004 -17 0.0 0.0 0.00 0.00 0.00 1010.2
20260901171603 -17 0.0 0.0 0.00 0.00 0.00 1010.1
20260901170101 -17 0.0 0.0 0.00 0.00 0.00 1010.1
20260901164552 -17 0.0 0.0 0.00 0.00 0.00 1009.7
20260901163106 -17 0.0 0.0 0.00 0.00 0.00 1009.5
20260901161550 10 275 9.7 22.5 0.00 0.00 0.00 64 1009.5
20260901160042 11 354 12.9 20.9 0.00 0.00 0.00 64 1009.4
20260901154542 11 289 9.7 20.9 0.00 0.00 0.00 64 1009.6